Time,TemperatureF,DewpointF,PressureIn,WindDirection,WindDirectionDegrees,WindSpeedMPH,WindSpeedGustMPH,Humidity,HourlyPrecipIn,Conditions,Clouds,dailyrainin,SoftwareType,DateUTC
2013-05-04 00:03:00,41.0,32.0,27.04,NE,49,11.0,12.0,70,0.00,,,-99.99,,2013-05-04 05:03:00,
2013-05-04 00:08:00,41.0,32.0,27.04,NE,52,11.0,11.0,70,0.00,,,-99.99,,2013-05-04 05:08:00,
2013-05-04 00:13:00,41.0,32.0,27.04,NE,51,10.0,12.0,70,0.00,,,-99.99,,2013-05-04 05:13:00,
2013-05-04 00:18:00,40.0,30.0,27.04,NE,54,9.0,11.0,70,0.00,,,-99.99,,2013-05-04 05:18:00,
2013-05-04 00:23:00,40.0,30.0,27.04,NE,44,9.0,10.0,70,0.00,,,-99.99,,2013-05-04 05:23:00,
2013-05-04 00:28:00,40.0,32.0,27.04,NE,47,9.0,10.0,71,0.00,,,-99.99,,2013-05-04 05:28:00,
2013-05-04 00:33:00,40.0,32.0,27.04,NE,48,9.0,11.0,71,0.00,,,-99.99,,2013-05-04 05:33:00,
2013-05-04 00:38:00,40.0,32.0,27.04,NE,44,10.0,12.0,71,0.00,,,-99.99,,2013-05-04 05:38:00,
2013-05-04 00:53:00,39.0,30.0,27.05,NE,45,9.0,9.0,71,0.00,,,-99.99,,2013-05-04 05:53:00,
2013-05-04 00:58:00,38.0,30.0,27.04,NE,48,8.0,9.0,72,0.00,,,-99.99,,2013-05-04 05:58:00,
2013-05-04 01:03:00,38.0,30.0,27.05,NE,49,8.0,9.0,72,0.00,,,-99.99,,2013-05-04 06:03:00,
2013-05-04 01:13:00,38.0,30.0,27.05,NE,39,7.0,8.0,73,0.00,,,-99.99,,2013-05-04 06:13:00,
2013-05-04 01:18:00,38.0,30.0,27.05,NE,41,7.0,8.0,73,0.00,,,-99.99,,2013-05-04 06:18:00,
2013-05-04 01:28:00,37.0,30.0,27.04,NE,35,8.0,8.0,74,0.00,,,-99.99,,2013-05-04 06:28:00,
2013-05-04 01:33:00,36.0,28.0,27.05,NNE,30,7.0,8.0,75,0.00,,,-99.99,,2013-05-04 06:33:00,
2013-05-04 01:48:00,35.0,28.0,27.05,North,10,6.0,6.0,76,0.00,,,-99.99,,2013-05-04 06:48:00,
2013-05-04 01:53:00,35.0,28.0,27.04,NNE,17,7.0,8.0,76,0.00,,,-99.99,,2013-05-04 06:53:00,
2013-05-04 02:03:00,36.0,28.0,27.04,NNE,17,8.0,9.0,75,0.00,,,-99.99,,2013-05-04 07:03:00,
2013-05-04 02:08:00,37.0,30.0,27.04,North,11,7.0,8.0,74,0.00,,,-99.99,,2013-05-04 07:08:00,
2013-05-04 02:18:00,36.0,28.0,27.04,NNE,16,8.0,9.0,75,0.00,,,-99.99,,2013-05-04 07:18:00,
2013-05-04 02:23:00,36.0,28.0,27.04,NNE,18,7.0,9.0,75,0.00,,,-99.99,,2013-05-04 07:23:00,
2013-05-04 02:28:00,35.0,28.0,27.04,NNE,18,8.0,8.0,75,0.00,,,-99.99,,2013-05-04 07:28:00,
2013-05-04 02:38:00,34.0,28.0,27.05,North,360,7.0,7.0,77,0.00,,,-99.99,,2013-05-04 07:38:00,
2013-05-04 02:43:00,33.0,27.0,27.05,North,350,7.0,7.0,78,0.00,,,-99.99,,2013-05-04 07:43:00,
2013-05-04 02:53:00,32.0,27.0,27.05,NNW,345,8.0,8.0,80,0.00,,,-99.99,,2013-05-04 07:53:00,
2013-05-04 02:58:00,32.0,27.0,27.05,NNW,348,8.0,9.0,81,0.00,,,-99.99,,2013-05-04 07:58:00,
2013-05-04 03:03:00,32.0,27.0,27.04,North,351,8.0,8.0,81,0.00,,,-99.99,,2013-05-04 08:03:00,
2013-05-04 03:08:00,32.0,27.0,27.04,NNW,347,8.0,8.0,82,0.00,,,-99.99,,2013-05-04 08:08:00,
2013-05-04 03:13:00,32.0,27.0,27.04,NNW,345,8.0,8.0,83,0.00,,,-99.99,,2013-05-04 08:13:00,
2013-05-04 03:18:00,31.0,27.0,27.04,NNW,345,7.0,8.0,83,0.00,,,-99.99,,2013-05-04 08:18:00,
2013-05-04 03:23:00,31.0,27.0,27.04,North,350,7.0,8.0,83,0.00,,,-99.99,,2013-05-04 08:23:00,
2013-05-04 03:33:00,31.0,27.0,27.04,North,350,8.0,9.0,84,0.00,,,-99.99,,2013-05-04 08:33:00,
2013-05-04 03:38:00,31.0,27.0,27.05,North,351,8.0,9.0,84,0.00,,,-99.99,,2013-05-04 08:38:00,
2013-05-04 03:48:00,31.0,27.0,27.05,North,3,8.0,8.0,83,0.00,,,-99.99,,2013-05-04 08:48:00,
2013-05-04 03:53:00,31.0,27.0,27.05,North,354,8.0,8.0,84,0.00,,,-99.99,,2013-05-04 08:53:00,
2013-05-04 03:58:00,31.0,27.0,27.05,NNW,338,8.0,8.0,84,0.00,,,-99.99,,2013-05-04 08:58:00,
2013-05-04 04:08:00,31.0,27.0,27.06,NNW,334,8.0,8.0,85,0.00,,,-99.99,,2013-05-04 09:08:00,
2013-05-04 04:13:00,31.0,27.0,27.06,NNW,330,8.0,8.0,86,0.00,,,-99.99,,2013-05-04 09:13:00,
2013-05-04 04:18:00,30.0,27.0,27.06,NW,320,7.0,8.0,86,0.00,,,-99.99,,2013-05-04 09:18:00,
2013-05-04 04:23:00,30.0,27.0,27.06,NW,324,8.0,9.0,86,0.00,,,-99.99,,2013-05-04 09:23:00,
2013-05-04 04:28:00,30.0,27.0,27.06,NNW,330,9.0,9.0,86,0.00,,,-99.99,,2013-05-04 09:28:00,
2013-05-04 04:33:00,30.0,27.0,27.06,NNW,331,9.0,9.0,87,0.00,,,-99.99,,2013-05-04 09:33:00,
2013-05-04 04:38:00,31.0,28.0,27.06,NNW,344,8.0,8.0,87,0.00,,,-99.99,,2013-05-04 09:38:00,
2013-05-04 04:43:00,31.0,27.0,27.06,North,350,8.0,8.0,86,0.00,,,-99.99,,2013-05-04 09:43:00,
2013-05-04 04:48:00,30.0,27.0,27.06,North,351,8.0,9.0,86,0.00,,,-99.99,,2013-05-04 09:48:00,
2013-05-04 04:58:00,30.0,27.0,27.06,North,1,9.0,9.0,86,0.00,,,-99.99,,2013-05-04 09:58:00,
2013-05-04 05:03:00,30.0,27.0,27.06,North,3,9.0,9.0,86,0.00,,,-99.99,,2013-05-04 10:03:00,
2013-05-04 05:13:00,30.0,27.0,27.06,North,4,10.0,11.0,86,0.00,,,-99.99,,2013-05-04 10:13:00,
2013-05-04 05:18:00,30.0,27.0,27.06,North,7,9.0,9.0,86,0.00,,,-99.99,,2013-05-04 10:18:00,
2013-05-04 05:33:00,29.0,27.0,27.06,North,1,9.0,9.0,88,0.00,,,-99.99,,2013-05-04 10:33:00,
2013-05-04 05:38:00,29.0,27.0,27.07,North,358,9.0,9.0,88,0.00,,,-99.99,,2013-05-04 10:38:00,
2013-05-04 05:48:00,28.0,25.0,27.07,North,354,9.0,10.0,89,0.00,,,-99.99,,2013-05-04 10:48:00,
2013-05-04 05:53:00,28.0,25.0,27.07,NNW,347,9.0,10.0,90,0.00,,,-99.99,,2013-05-04 10:53:00,
2013-05-04 06:03:00,28.0,25.0,27.07,NNW,344,9.0,10.0,90,0.00,,,-99.99,,2013-05-04 11:03:00,
2013-05-04 06:08:00,29.0,27.0,27.07,NNW,341,9.0,9.0,90,0.00,,,-99.99,,2013-05-04 11:08:00,
2013-05-04 06:13:00,29.0,27.0,27.07,NNW,334,8.0,10.0,90,0.00,,,-99.99,,2013-05-04 11:13:00,
2013-05-04 06:23:00,29.0,27.0,27.07,NNW,334,9.0,10.0,89,0.00,,,-99.99,,2013-05-04 11:23:00,
2013-05-04 06:28:00,29.0,27.0,27.07,NNW,333,10.0,10.0,89,0.00,,,-99.99,,2013-05-04 11:28:00,
2013-05-04 06:38:00,30.0,27.0,27.07,NNW,327,10.0,12.0,89,0.00,,,-99.99,,2013-05-04 11:38:00,
2013-05-04 06:43:00,30.0,27.0,27.07,NNW,329,11.0,12.0,89,0.00,,,-99.99,,2013-05-04 11:43:00,
2013-05-04 06:53:00,30.0,27.0,27.07,NNW,338,11.0,12.0,88,0.00,,,-99.99,,2013-05-04 11:53:00,
2013-05-04 06:58:00,30.0,27.0,27.07,NNW,333,11.0,12.0,88,0.00,,,-99.99,,2013-05-04 11:58:00,
2013-05-04 07:03:00,30.0,27.0,27.07,NNW,337,11.0,12.0,88,0.00,,,-99.99,,2013-05-04 12:03:00,
2013-05-04 07:08:00,30.0,27.0,27.07,NNW,330,11.0,13.0,88,0.00,,,-99.99,,2013-05-04 12:08:00,
2013-05-04 07:13:00,30.0,27.0,27.07,NNW,336,12.0,13.0,88,0.00,,,-99.99,,2013-05-04 12:13:00,
2013-05-04 07:33:00,31.0,28.0,27.08,NNW,344,11.0,13.0,88,0.00,,,-99.99,,2013-05-04 12:33:00,
2013-05-04 07:38:00,32.0,28.0,27.08,NNW,343,11.0,12.0,88,0.00,,,-99.99,,2013-05-04 12:38:00,
2013-05-04 07:48:00,33.0,28.0,27.08,NNW,333,13.0,15.0,86,0.00,,,-99.99,,2013-05-04 12:48:00,
2013-05-04 07:53:00,33.0,28.0,27.08,NNW,345,12.0,14.0,85,0.00,,,-99.99,,2013-05-04 12:53:00,
2013-05-04 07:58:00,33.0,28.0,27.09,NNW,333,12.0,15.0,85,0.00,,,-99.99,,2013-05-04 12:58:00,
2013-05-04 08:08:00,33.0,28.0,27.09,NNW,327,13.0,15.0,85,0.00,,,-99.99,,2013-05-04 13:08:00,
2013-05-04 08:13:00,33.0,28.0,27.09,NNW,334,13.0,15.0,85,0.00,,,-99.99,,2013-05-04 13:13:00,
2013-05-04 08:18:00,34.0,30.0,27.09,NNW,345,13.0,15.0,85,0.00,,,-99.99,,2013-05-04 13:18:00,
2013-05-04 08:23:00,34.0,30.0,27.09,NNW,336,12.0,15.0,85,0.00,,,-99.99,,2013-05-04 13:23:00,
2013-05-04 08:28:00,35.0,30.0,27.08,NNW,329,15.0,18.0,84,0.00,,,-99.99,,2013-05-04 13:28:00,
2013-05-04 08:33:00,35.0,30.0,27.09,NNW,327,16.0,18.0,82,0.00,,,-99.99,,2013-05-04 13:33:00,
2013-05-04 08:38:00,36.0,30.0,27.09,NNW,338,16.0,18.0,81,0.00,,,-99.99,,2013-05-04 13:38:00,
2013-05-04 08:43:00,37.0,32.0,27.09,NNW,331,15.0,18.0,80,0.00,,,-99.99,,2013-05-04 13:43:00,
2013-05-04 08:48:00,37.0,32.0,27.09,NNW,343,16.0,18.0,79,0.00,,,-99.99,,2013-05-04 13:48:00,
2013-05-04 08:53:00,37.0,30.0,27.09,NNW,338,16.0,19.0,78,0.00,,,-99.99,,2013-05-04 13:53:00,
2013-05-04 09:03:00,38.0,32.0,27.09,NNW,348,15.0,19.0,78,0.00,,,-99.99,,2013-05-04 14:03:00,
2013-05-04 09:08:00,38.0,32.0,27.09,North,350,17.0,19.0,77,0.00,,,-99.99,,2013-05-04 14:08:00,
2013-05-04 09:18:00,39.0,32.0,27.09,NNW,329,16.0,19.0,76,0.00,,,-99.99,,2013-05-04 14:18:00,
2013-05-04 09:23:00,39.0,32.0,27.09,NNW,344,16.0,18.0,75,0.00,,,-99.99,,2013-05-04 14:23:00,
2013-05-04 09:28:00,39.0,32.0,27.09,NNW,329,18.0,20.0,75,0.00,,,-99.99,,2013-05-04 14:28:00,
2013-05-04 09:33:00,40.0,32.0,27.08,NW,319,18.0,22.0,74,0.00,,,-99.99,,2013-05-04 14:33:00,
2013-05-04 09:38:00,40.0,32.0,27.08,North,350,20.0,23.0,72,0.00,,,-99.99,,2013-05-04 14:38:00,
2013-05-04 09:43:00,41.0,32.0,27.08,NNW,348,19.0,22.0,70,0.00,,,-99.99,,2013-05-04 14:43:00,
2013-05-04 09:48:00,41.0,32.0,27.08,NNW,340,21.0,25.0,68,0.00,,,-99.99,,2013-05-04 14:48:00,
2013-05-04 09:53:00,42.0,32.0,27.08,North,6,19.0,22.0,68,0.00,,,-99.99,,2013-05-04 14:53:00,
2013-05-04 09:58:00,42.0,32.0,27.08,NNW,343,21.0,25.0,66,0.00,,,-99.99,,2013-05-04 14:58:00,
2013-05-04 10:03:00,42.0,32.0,27.08,NNW,347,21.0,24.0,66,0.00,,,-99.99,,2013-05-04 15:03:00,
2013-05-04 10:08:00,42.0,32.0,27.08,NNW,344,21.0,26.0,66,0.00,,,-99.99,,2013-05-04 15:08:00,
2013-05-04 10:13:00,42.0,32.0,27.08,North,354,19.0,23.0,66,0.00,,,-99.99,,2013-05-04 15:13:00,
2013-05-04 10:18:00,43.0,32.0,27.08,NNW,345,20.0,24.0,66,0.00,,,-99.99,,2013-05-04 15:18:00,
2013-05-04 10:23:00,43.0,32.0,27.07,NNW,340,22.0,25.0,64,0.00,,,-99.99,,2013-05-04 15:23:00,
2013-05-04 10:28:00,43.0,32.0,27.08,NNW,345,18.0,23.0,65,0.00,,,-99.99,,2013-05-04 15:28:00,
2013-05-04 10:33:00,44.0,32.0,27.07,North,360,20.0,24.0,64,0.00,,,-99.99,,2013-05-04 15:33:00,
2013-05-04 10:38:00,44.0,32.0,27.08,North,360,21.0,24.0,63,0.00,,,-99.99,,2013-05-04 15:38:00,
2013-05-04 10:43:00,44.0,32.0,27.07,NNW,344,20.0,23.0,63,0.00,,,-99.99,,2013-05-04 15:43:00,
2013-05-04 10:48:00,45.0,32.0,27.07,North,358,20.0,23.0,61,0.00,,,-99.99,,2013-05-04 15:48:00,
2013-05-04 10:53:00,45.0,32.0,27.07,NNW,347,21.0,23.0,61,0.00,,,-99.99,,2013-05-04 15:53:00,
2013-05-04 10:58:00,45.0,32.0,27.08,North,353,20.0,23.0,60,0.00,,,-99.99,,2013-05-04 15:58:00,
2013-05-04 11:03:00,46.0,34.0,27.08,North,11,19.0,23.0,60,0.00,,,-99.99,,2013-05-04 16:03:00,
2013-05-04 11:08:00,46.0,32.0,27.08,North,1,20.0,22.0,58,0.00,,,-99.99,,2013-05-04 16:08:00,
2013-05-04 11:13:00,47.0,32.0,27.08,North,355,19.0,22.0,57,0.00,,,-99.99,,2013-05-04 16:13:00,
2013-05-04 11:18:00,47.0,32.0,27.08,NNW,338,17.0,21.0,57,0.00,,,-99.99,,2013-05-04 16:18:00,
2013-05-04 11:23:00,47.0,32.0,27.08,North,4,21.0,24.0,55,0.00,,,-99.99,,2013-05-04 16:23:00,
2013-05-04 11:28:00,48.0,32.0,27.07,NNW,348,19.0,22.0,55,0.00,,,-99.99,,2013-05-04 16:28:00,
2013-05-04 11:33:00,48.0,32.0,27.07,NNW,331,21.0,25.0,52,0.00,,,-99.99,,2013-05-04 16:33:00,
2013-05-04 11:38:00,48.0,32.0,27.07,North,360,19.0,22.0,53,0.00,,,-99.99,,2013-05-04 16:38:00,
2013-05-04 11:43:00,48.0,32.0,27.07,North,7,21.0,25.0,52,0.00,,,-99.99,,2013-05-04 16:43:00,
2013-05-04 11:53:00,49.0,32.0,27.08,NNW,340,21.0,24.0,50,0.00,,,-99.99,,2013-05-04 16:53:00,
2013-05-04 11:58:00,49.0,30.0,27.07,North,353,20.0,23.0,49,0.00,,,-99.99,,2013-05-04 16:58:00,
2013-05-04 12:08:00,50.0,32.0,27.07,North,353,21.0,23.0,49,0.00,,,-99.99,,2013-05-04 17:08:00,
2013-05-04 12:13:00,50.0,32.0,27.07,NNW,345,19.0,23.0,50,0.00,,,-99.99,,2013-05-04 17:13:00,
2013-05-04 12:23:00,51.0,32.0,27.08,NNW,343,17.0,23.0,47,0.00,,,-99.99,,2013-05-04 17:23:00,
2013-05-04 12:28:00,51.0,32.0,27.08,North,355,19.0,23.0,48,0.00,,,-99.99,,2013-05-04 17:28:00,
2013-05-04 12:38:00,52.0,30.0,27.07,NNW,347,19.0,22.0,44,0.00,,,-99.99,,2013-05-04 17:38:00,
2013-05-04 12:43:00,52.0,30.0,27.07,North,7,19.0,24.0,44,0.00,,,-99.99,,2013-05-04 17:43:00,
2013-05-04 12:53:00,52.0,32.0,27.07,North,353,20.0,24.0,46,0.00,,,-99.99,,2013-05-04 17:53:00,
2013-05-04 12:58:00,52.0,30.0,27.07,North,4,20.0,26.0,44,0.00,,,-99.99,,2013-05-04 17:58:00,
2013-05-04 13:08:00,53.0,32.0,27.06,NNE,13,19.0,23.0,45,0.00,,,-99.99,,2013-05-04 18:08:00,
2013-05-04 13:13:00,53.0,32.0,27.06,North,4,21.0,25.0,44,0.00,,,-99.99,,2013-05-04 18:13:00,
2013-05-04 13:28:00,53.0,32.0,27.06,NNE,16,20.0,27.0,44,0.00,,,-99.99,,2013-05-04 18:28:00,
2013-05-04 13:33:00,54.0,32.0,27.06,North,357,18.0,21.0,44,0.00,,,-99.99,,2013-05-04 18:33:00,
2013-05-04 13:38:00,54.0,32.0,27.06,North,1,20.0,23.0,42,0.00,,,-99.99,,2013-05-04 18:38:00,
2013-05-04 13:43:00,54.0,30.0,27.06,NNE,21,19.0,22.0,41,0.00,,,-99.99,,2013-05-04 18:43:00,
2013-05-04 13:48:00,54.0,30.0,27.06,North,8,20.0,24.0,39,0.00,,,-99.99,,2013-05-04 18:48:00,
2013-05-04 13:53:00,55.0,30.0,27.06,North,357,20.0,23.0,38,0.00,,,-99.99,,2013-05-04 18:53:00,
2013-05-04 13:58:00,55.0,28.0,27.06,North,6,18.0,28.0,37,0.00,,,-99.99,,2013-05-04 18:58:00,
2013-05-04 14:08:00,55.0,28.0,27.05,North,360,21.0,24.0,35,0.00,,,-99.99,,2013-05-04 19:08:00,
2013-05-04 14:13:00,55.0,28.0,27.05,NNE,17,17.0,20.0,36,0.00,,,-99.99,,2013-05-04 19:13:00,
2013-05-04 14:18:00,55.0,28.0,27.05,NNW,341,19.0,23.0,37,0.00,,,-99.99,,2013-05-04 19:18:00,
2013-05-04 14:23:00,56.0,30.0,27.05,North,350,19.0,22.0,37,0.00,,,-99.99,,2013-05-04 19:23:00,
2013-05-04 14:28:00,56.0,30.0,27.05,North,353,20.0,23.0,37,0.00,,,-99.99,,2013-05-04 19:28:00,
2013-05-04 14:33:00,56.0,30.0,27.05,NNE,17,20.0,23.0,36,0.00,,,-99.99,,2013-05-04 19:33:00,
2013-05-04 14:38:00,55.0,30.0,27.05,North,360,20.0,24.0,39,0.00,,,-99.99,,2013-05-04 19:38:00,
2013-05-04 14:48:00,56.0,32.0,27.04,NNE,24,18.0,22.0,39,0.00,,,-99.99,,2013-05-04 19:48:00,
2013-05-04 14:53:00,56.0,30.0,27.04,North,8,21.0,24.0,37,0.00,,,-99.99,,2013-05-04 19:53:00,
2013-05-04 14:58:00,56.0,30.0,27.04,North,7,17.0,21.0,37,0.00,,,-99.99,,2013-05-04 19:58:00,
2013-05-04 15:03:00,56.0,30.0,27.04,NNE,17,21.0,25.0,36,0.00,,,-99.99,,2013-05-04 20:03:00,
2013-05-04 15:08:00,56.0,30.0,27.04,NNW,340,19.0,24.0,37,0.00,,,-99.99,,2013-05-04 20:08:00,
2013-05-04 15:13:00,56.0,30.0,27.04,NNW,343,20.0,27.0,38,0.00,,,-99.99,,2013-05-04 20:13:00,
2013-05-04 15:18:00,56.0,30.0,27.04,NNW,341,19.0,22.0,37,0.00,,,-99.99,,2013-05-04 20:18:00,
2013-05-04 15:23:00,57.0,32.0,27.04,NNW,327,18.0,24.0,38,0.00,,,-99.99,,2013-05-04 20:23:00,
2013-05-04 15:28:00,57.0,30.0,27.04,NNE,16,18.0,21.0,37,0.00,,,-99.99,,2013-05-04 20:28:00,
2013-05-04 15:38:00,57.0,30.0,27.04,NNE,18,18.0,21.0,36,0.00,,,-99.99,,2013-05-04 20:38:00,
2013-05-04 15:43:00,57.0,30.0,27.04,NNE,17,17.0,21.0,36,0.00,,,-99.99,,2013-05-04 20:43:00,
2013-05-04 15:53:00,58.0,34.0,27.03,NNW,329,21.0,24.0,39,0.00,,,-99.99,,2013-05-04 20:53:00,
2013-05-04 15:58:00,58.0,32.0,27.04,North,3,17.0,22.0,37,0.00,,,-99.99,,2013-05-04 20:58:00,
2013-05-04 16:03:00,58.0,32.0,27.04,NNE,13,18.0,24.0,37,0.00,,,-99.99,,2013-05-04 21:03:00,
2013-05-04 16:18:00,57.0,30.0,27.03,North,8,18.0,23.0,36,0.00,,,-99.99,,2013-05-04 21:18:00,
2013-05-04 16:23:00,58.0,32.0,27.03,NNW,330,19.0,22.0,37,0.00,,,-99.99,,2013-05-04 21:23:00,
2013-05-04 16:33:00,58.0,32.0,27.03,North,4,17.0,21.0,36,0.00,,,-99.99,,2013-05-04 21:33:00,
2013-05-04 16:38:00,58.0,32.0,27.03,NNE,17,17.0,21.0,36,0.00,,,-99.99,,2013-05-04 21:38:00,
2013-05-04 16:48:00,59.0,32.0,27.03,NNW,340,21.0,25.0,36,0.00,,,-99.99,,2013-05-04 21:48:00,
2013-05-04 16:53:00,58.0,32.0,27.03,NNE,17,18.0,21.0,36,0.00,,,-99.99,,2013-05-04 21:53:00,
2013-05-04 16:58:00,58.0,32.0,27.03,NNE,28,19.0,23.0,36,0.00,,,-99.99,,2013-05-04 21:58:00,
2013-05-04 17:03:00,58.0,32.0,27.03,North,3,19.0,21.0,36,0.00,,,-99.99,,2013-05-04 22:03:00,
2013-05-04 17:08:00,58.0,30.0,27.03,North,351,19.0,22.0,35,0.00,,,-99.99,,2013-05-04 22:08:00,
2013-05-04 17:13:00,58.0,32.0,27.03,North,354,17.0,21.0,36,0.00,,,-99.99,,2013-05-04 22:13:00,
2013-05-04 17:18:00,58.0,30.0,27.03,North,11,19.0,22.0,35,0.00,,,-99.99,,2013-05-04 22:18:00,
2013-05-04 17:23:00,58.0,32.0,27.02,NNE,14,18.0,22.0,36,0.00,,,-99.99,,2013-05-04 22:23:00,
2013-05-04 17:28:00,59.0,32.0,27.02,NNE,17,17.0,23.0,37,0.00,,,-99.99,,2013-05-04 22:28:00,
2013-05-04 17:33:00,59.0,32.0,27.02,North,351,20.0,24.0,36,0.00,,,-99.99,,2013-05-04 22:33:00,
2013-05-04 17:38:00,59.0,32.0,27.02,NNE,16,19.0,25.0,36,0.00,,,-99.99,,2013-05-04 22:38:00,
2013-05-04 17:43:00,58.0,32.0,27.02,North,355,19.0,22.0,37,0.00,,,-99.99,,2013-05-04 22:43:00,
2013-05-04 17:48:00,58.0,32.0,27.02,NNE,21,19.0,22.0,38,0.00,,,-99.99,,2013-05-04 22:48:00,
2013-05-04 17:53:00,58.0,32.0,27.02,NNE,24,18.0,22.0,38,0.00,,,-99.99,,2013-05-04 22:53:00,
2013-05-04 17:58:00,58.0,34.0,27.02,NNE,18,19.0,23.0,39,0.00,,,-99.99,,2013-05-04 22:58:00,
2013-05-04 18:08:00,58.0,32.0,27.02,North,3,17.0,20.0,37,0.00,,,-99.99,,2013-05-04 23:08:00,
2013-05-04 18:13:00,58.0,32.0,27.03,North,10,18.0,21.0,37,0.00,,,-99.99,,2013-05-04 23:13:00,
2013-05-04 18:18:00,58.0,32.0,27.03,NNE,30,17.0,20.0,38,0.00,,,-99.99,,2013-05-04 23:18:00,
2013-05-04 18:23:00,58.0,32.0,27.03,North,358,17.0,20.0,37,0.00,,,-99.99,,2013-05-04 23:23:00,
2013-05-04 18:28:00,58.0,32.0,27.03,NNE,24,18.0,22.0,37,0.00,,,-99.99,,2013-05-04 23:28:00,
2013-05-04 18:33:00,58.0,32.0,27.03,North,6,18.0,21.0,38,0.00,,,-99.99,,2013-05-04 23:33:00,
2013-05-04 18:43:00,57.0,32.0,27.03,NNE,17,18.0,21.0,38,0.00,,,-99.99,,2013-05-04 23:43:00,
2013-05-04 18:48:00,57.0,32.0,27.03,North,7,16.0,19.0,38,0.00,,,-99.99,,2013-05-04 23:48:00,
2013-05-04 18:58:00,57.0,32.0,27.03,North,6,16.0,20.0,38,0.00,,,-99.99,,2013-05-04 23:58:00,
2013-05-04 19:03:00,57.0,32.0,27.03,North,355,15.0,19.0,38,0.00,,,-99.99,,2013-05-05 00:03:00,
2013-05-04 19:13:00,57.0,32.0,27.03,North,3,16.0,20.0,39,0.00,,,-99.99,,2013-05-05 00:13:00,
2013-05-04 19:18:00,57.0,34.0,27.03,NNE,25,16.0,20.0,40,0.00,,,-99.99,,2013-05-05 00:18:00,
2013-05-04 19:28:00,56.0,32.0,27.03,NNE,14,17.0,19.0,41,0.00,,,-99.99,,2013-05-05 00:28:00,
2013-05-04 19:33:00,56.0,32.0,27.04,NNE,23,17.0,21.0,41,0.00,,,-99.99,,2013-05-05 00:33:00,
2013-05-04 19:38:00,56.0,34.0,27.04,NNE,24,16.0,19.0,42,0.00,,,-99.99,,2013-05-05 00:38:00,
2013-05-04 19:43:00,55.0,32.0,27.04,NNE,23,16.0,19.0,42,0.00,,,-99.99,,2013-05-05 00:43:00,
2013-05-04 19:48:00,55.0,32.0,27.04,NNE,28,16.0,21.0,42,0.00,,,-99.99,,2013-05-05 00:48:00,
2013-05-04 19:58:00,54.0,32.0,27.04,NE,41,15.0,18.0,42,0.00,,,-99.99,,2013-05-05 00:58:00,
2013-05-04 20:03:00,54.0,32.0,27.04,NE,38,13.0,15.0,43,0.00,,,-99.99,,2013-05-05 01:03:00,
2013-05-04 20:13:00,53.0,32.0,27.05,NE,47,14.0,16.0,43,0.00,,,-99.99,,2013-05-05 01:13:00,
2013-05-04 20:18:00,53.0,32.0,27.05,NE,45,14.0,15.0,43,0.00,,,-99.99,,2013-05-05 01:18:00,
2013-05-04 20:23:00,52.0,30.0,27.05,NE,35,12.0,14.0,43,0.00,,,-99.99,,2013-05-05 01:23:00,
2013-05-04 20:33:00,51.0,30.0,27.06,NE,34,11.0,13.0,45,0.00,,,-99.99,,2013-05-05 01:33:00,
2013-05-04 20:38:00,50.0,30.0,27.06,NNE,28,10.0,12.0,47,0.00,,,-99.99,,2013-05-05 01:38:00,
2013-05-04 20:53:00,48.0,30.0,27.07,NE,35,9.0,10.0,49,0.00,,,-99.99,,2013-05-05 01:53:00,
2013-05-04 20:58:00,48.0,30.0,27.07,NE,37,9.0,11.0,50,0.00,,,-99.99,,2013-05-05 01:58:00,
2013-05-04 21:08:00,47.0,30.0,27.07,NNE,32,10.0,11.0,52,0.00,,,-99.99,,2013-05-05 02:08:00,
2013-05-04 21:13:00,46.0,30.0,27.07,NNE,31,10.0,10.0,53,0.00,,,-99.99,,2013-05-05 02:13:00,
2013-05-04 21:18:00,45.0,30.0,27.07,NNE,32,10.0,10.0,54,0.00,,,-99.99,,2013-05-05 02:18:00,
2013-05-04 21:28:00,45.0,30.0,27.08,NNE,30,10.0,10.0,56,0.00,,,-99.99,,2013-05-05 02:28:00,
2013-05-04 21:33:00,45.0,30.0,27.08,NNE,27,9.0,10.0,56,0.00,,,-99.99,,2013-05-05 02:33:00,
2013-05-04 21:48:00,43.0,30.0,27.09,NNE,28,8.0,8.0,59,0.00,,,-99.99,,2013-05-05 02:48:00,
2013-05-04 21:53:00,43.0,30.0,27.09,NNE,25,7.0,8.0,59,0.00,,,-99.99,,2013-05-05 02:53:00,
2013-05-04 22:03:00,42.0,28.0,27.09,NE,35,8.0,8.0,60,0.00,,,-99.99,,2013-05-05 03:03:00,
2013-05-04 22:08:00,42.0,30.0,27.09,NE,35,8.0,8.0,61,0.00,,,-99.99,,2013-05-05 03:08:00,
2013-05-04 22:13:00,42.0,30.0,27.10,NE,35,7.0,8.0,61,0.00,,,-99.99,,2013-05-05 03:13:00,
2013-05-04 22:18:00,42.0,30.0,27.10,NE,39,8.0,9.0,62,0.00,,,-99.99,,2013-05-05 03:18:00,
2013-05-04 22:23:00,42.0,30.0,27.10,NE,44,7.0,8.0,62,0.00,,,-99.99,,2013-05-05 03:23:00,
2013-05-04 22:28:00,41.0,28.0,27.10,NE,44,8.0,8.0,62,0.00,,,-99.99,,2013-05-05 03:28:00,
2013-05-04 22:43:00,41.0,30.0,27.11,NE,38,8.0,8.0,64,0.00,,,-99.99,,2013-05-05 03:43:00,
2013-05-04 22:48:00,40.0,28.0,27.11,NE,37,8.0,8.0,64,0.00,,,-99.99,,2013-05-05 03:48:00,
2013-05-04 22:58:00,40.0,28.0,27.11,NE,34,8.0,8.0,65,0.00,,,-99.99,,2013-05-05 03:58:00,
2013-05-04 23:03:00,40.0,28.0,27.11,NE,39,7.0,8.0,65,0.00,,,-99.99,,2013-05-05 04:03:00,
2013-05-04 23:08:00,40.0,28.0,27.12,NE,35,7.0,7.0,65,0.00,,,-99.99,,2013-05-05 04:08:00,
2013-05-04 23:18:00,39.0,28.0,27.12,NE,35,7.0,7.0,66,0.00,,,-99.99,,2013-05-05 04:18:00,
2013-05-04 23:23:00,39.0,28.0,27.12,NE,45,8.0,9.0,66,0.00,,,-99.99,,2013-05-05 04:23:00,
2013-05-04 23:28:00,39.0,28.0,27.12,NE,45,8.0,9.0,66,0.00,,,-99.99,,2013-05-05 04:28:00,
2013-05-04 23:38:00,39.0,28.0,27.12,NE,39,7.0,7.0,67,0.00,,,-99.99,,2013-05-05 04:38:00,
2013-05-04 23:43:00,39.0,30.0,27.12,NE,42,8.0,8.0,68,0.00,,,-99.99,,2013-05-05 04:43:00,
2013-05-04 23:58:00,38.0,28.0,27.13,NE,42,7.0,7.0,70,0.00,,,-99.99,,2013-05-05 04:58:00,